CZ-6A DEB, 56653

Orbit data source: Space-Track

CZ-6A DEB, 56653 is space debris in SSO originally from a launch on Fri, 11 Nov 2022 UTC launched from the Taiyaun Space Center, China (TSC). Debris objects in space refer to the collection of defunct objects orbiting the Earth. Examples of debris include non-operational satellites, rocket bodies, and fragments generated from explosions, collisions, or faulty payload assembly.

Loading next visibility...
Identifier
56653, 2022-151AGD
Orbit
SSO
Country
Flag of CNCN / PRC
Related business
Manufacturer
SAST
Mission
Spacecraft
Bus & Motor
Unknown
Mass
Unknown
Launch date (UTC)
2022-11-11 (4 years ago)
Launch vehicle
Unknown
Launch site
Taiyaun Space Center, China (TSC)
Object type
Payload
Rocket body
Debris
Shape & HBR
Unknown shape, 0.1 m
Radar Cross Section
Small (<0.1 m²)

Expand to show TLE details & history
Last TLE update: 7 hours ago

TLE from 7 hours ago
0 CZ-6A DEB
1 56653U 22151AGD 26236.51273612  .00003288  00000-0  47393-3 0  9992
2 56653  98.6015 327.1662 0103140 334.7814  24.8376 14.73499058178244
Epoch: 2026-08-24T12:18Z
TLE epoch observation values (Epoch: 2026-08-24T12:18:20.400Z)
Latitude
-0.00002°
Longitude
169.78784°
Altitude
587.249 km
Speed
7.602 km/s
True Right ascension
21h 48m 39s
True Declination
0° 00' 00"
Sunlit
Object was in full shadow at epoch
Visualization orbit readout
Latitude
Unknown
Longitude
Unknown
Altitude
Unknown
Speed
Unknown
Apparent Right ascension
Unknown
Apparent Declination
Unknown
Sunlit
N/A
Visualization observer readout
Local Sidereal Time
10:16:41
Azimuth
Unknown
Elevation
Unknown
Doppler factor
Unknown
Orbital elements
Apogee altitude
719.459 km
Perigee altitude
574.544 km
Semi-major axis
7,025.139 km
Eccentricity
0.01031
Inclination
98.6015°
RAAN
327.1662°
Arg. of periapsis
334.7814°
True anomaly
25.33992°
Mean anomaly
24.8376°
Eccentric anomaly
25.08817°
Mean motion
3.68605 °/min
Orbital period
97.67 mins
BSTAR
0.00047393
Loading maneuver chart data...
Computing Atmospheric mass density...

Documentation

Showing up to 5 results
|